TimeCDT,TemperatureF,Dew PointF,Humidity,Sea Level PressureIn,VisibilityMPH,Wind Direction,Wind SpeedMPH,Gust SpeedMPH,PrecipitationIn,Events,Conditions,WindDirDegrees,DateUTC
12:13 AM,68.0,64.4,88,29.81,10.0,WNW,10.4,-,N/A,,Mostly Cloudy,300,2013-09-10 05:13:00
12:33 AM,66.2,64.4,94,29.81,10.0,WNW,9.2,-,N/A,,Scattered Clouds,290,2013-09-10 05:33:00
12:53 AM,66.2,64.4,94,29.82,10.0,WNW,10.4,16.1,N/A,,Scattered Clouds,300,2013-09-10 05:53:00
1:13 AM,66.2,62.6,88,29.83,10.0,WNW,8.1,-,N/A,,Scattered Clouds,300,2013-09-10 06:13:00
1:34 AM,66.2,62.6,88,29.84,10.0,West,9.2,-,N/A,,Clear,280,2013-09-10 06:34:00
1:53 AM,66.2,62.6,88,29.85,10.0,West,5.8,-,N/A,,Clear,260,2013-09-10 06:53:00
2:13 AM,66.2,62.6,88,29.86,10.0,West,6.9,-,N/A,,Clear,260,2013-09-10 07:13:00
2:33 AM,66.2,62.6,88,29.87,10.0,West,8.1,-,N/A,,Clear,260,2013-09-10 07:33:00
2:53 AM,64.4,62.6,94,29.86,10.0,West,5.8,-,N/A,,Clear,270,2013-09-10 07:53:00
3:14 AM,64.4,62.6,94,29.86,10.0,West,6.9,-,N/A,,Clear,280,2013-09-10 08:14:00
3:33 AM,64.4,62.6,94,29.87,10.0,West,8.1,-,N/A,,Clear,260,2013-09-10 08:33:00
3:53 AM,64.4,62.6,94,29.87,10.0,West,6.9,-,N/A,,Clear,270,2013-09-10 08:53:00
4:13 AM,64.4,62.6,94,29.87,10.0,West,5.8,-,N/A,,Scattered Clouds,270,2013-09-10 09:13:00
4:33 AM,64.4,62.6,94,29.86,10.0,Calm,Calm,-,N/A,,Clear,0,2013-09-10 09:33:00
4:53 AM,64.4,62.6,94,29.87,10.0,SSW,3.5,-,N/A,,Scattered Clouds,210,2013-09-10 09:53:00
5:13 AM,64.4,62.6,94,29.87,10.0,WSW,4.6,-,N/A,,Scattered Clouds,240,2013-09-10 10:13:00
5:33 AM,64.4,62.6,94,29.87,10.0,WSW,4.6,-,N/A,,Clear,240,2013-09-10 10:33:00
5:54 AM,64.4,62.6,94,29.88,10.0,WSW,3.5,-,N/A,,Clear,240,2013-09-10 10:54:00
6:13 AM,64.4,62.6,94,29.88,10.0,SW,3.5,-,N/A,,Clear,230,2013-09-10 11:13:00
6:33 AM,64.4,64.4,100,29.87,7.0,Calm,Calm,-,N/A,,Clear,0,2013-09-10 11:33:00
6:53 AM,64.4,62.6,94,29.87,7.0,Calm,Calm,-,N/A,,Clear,0,2013-09-10 11:53:00
7:13 AM,64.4,62.6,94,29.88,7.0,South,6.9,-,N/A,,Clear,180,2013-09-10 12:13:00
7:33 AM,64.4,62.6,94,29.89,4.0,SSW,4.6,-,N/A,,Clear,200,2013-09-10 12:33:00
7:53 AM,64.4,64.4,100,29.89,5.0,South,5.8,-,N/A,,Clear,190,2013-09-10 12:53:00
8:13 AM,64.4,64.4,100,29.88,7.0,SSW,4.6,-,N/A,,Clear,200,2013-09-10 13:13:00
8:33 AM,66.2,64.4,94,29.88,10.0,SW,5.8,-,N/A,,Clear,220,2013-09-10 13:33:00
8:53 AM,68.0,66.2,94,29.88,10.0,SSW,8.1,-,N/A,,Clear,210,2013-09-10 13:53:00
9:13 AM,69.8,64.4,83,29.88,10.0,SW,9.2,-,N/A,,Clear,230,2013-09-10 14:13:00
9:34 AM,71.6,64.4,78,29.89,10.0,WSW,11.5,-,N/A,,Clear,240,2013-09-10 14:34:00
9:53 AM,71.6,64.4,78,29.90,10.0,WSW,13.8,18.4,N/A,,Clear,240,2013-09-10 14:53:00
10:13 AM,69.8,64.4,83,29.91,10.0,WSW,11.5,17.3,N/A,,Clear,240,2013-09-10 15:13:00
10:34 AM,71.6,64.4,78,29.92,10.0,WSW,13.8,-,N/A,,Clear,250,2013-09-10 15:34:00
10:53 AM,73.4,64.4,73,29.93,10.0,WSW,13.8,18.4,N/A,,Clear,240,2013-09-10 15:53:00
11:13 AM,73.4,64.4,73,29.93,10.0,WSW,13.8,-,N/A,,Clear,250,2013-09-10 16:13:00
11:33 AM,75.2,62.6,65,29.93,10.0,West,12.7,-,N/A,,Clear,260,2013-09-10 16:33:00
11:53 AM,75.2,62.6,65,29.94,10.0,WSW,13.8,-,N/A,,Clear,240,2013-09-10 16:53:00
12:14 PM,77.0,60.8,57,29.94,10.0,West,11.5,-,N/A,,Clear,260,2013-09-10 17:14:00
12:33 PM,78.8,60.8,54,29.94,10.0,West,13.8,19.6,N/A,,Clear,270,2013-09-10 17:33:00
12:53 PM,78.8,57.2,47,29.94,10.0,West,11.5,16.1,N/A,,Clear,260,2013-09-10 17:53:00
1:13 PM,78.8,57.2,47,29.94,10.0,West,11.5,19.6,N/A,,Clear,270,2013-09-10 18:13:00
1:33 PM,78.8,57.2,47,29.95,10.0,West,13.8,19.6,N/A,,Clear,270,2013-09-10 18:33:00
1:53 PM,78.8,59.0,51,29.95,10.0,West,15.0,18.4,N/A,,Clear,260,2013-09-10 18:53:00
2:13 PM,80.6,59.0,48,29.95,10.0,West,17.3,21.9,N/A,,Clear,270,2013-09-10 19:13:00
2:33 PM,80.6,57.2,45,29.95,10.0,West,16.1,21.9,N/A,,Clear,260,2013-09-10 19:33:00
2:53 PM,78.8,57.2,47,29.95,10.0,West,16.1,-,N/A,,Clear,260,2013-09-10 19:53:00
3:13 PM,78.8,57.2,47,29.95,10.0,WSW,15.0,21.9,N/A,,Clear,250,2013-09-10 20:13:00
3:33 PM,78.8,57.2,47,29.95,10.0,West,15.0,20.7,N/A,,Clear,270,2013-09-10 20:33:00
3:54 PM,75.2,57.2,53,29.96,10.0,West,13.8,21.9,N/A,,Clear,280,2013-09-10 20:54:00
4:13 PM,75.2,57.2,53,29.95,10.0,WNW,13.8,18.4,N/A,,Clear,290,2013-09-10 21:13:00
4:33 PM,75.2,57.2,53,29.95,10.0,WNW,18.4,-,N/A,,Clear,290,2013-09-10 21:33:00
4:53 PM,75.2,57.2,53,29.96,10.0,West,13.8,-,N/A,,Clear,280,2013-09-10 21:53:00
5:13 PM,75.2,59.0,57,29.96,10.0,West,13.8,20.7,N/A,,Clear,280,2013-09-10 22:13:00
5:33 PM,73.4,57.2,57,29.96,10.0,WNW,15.0,20.7,N/A,,Clear,290,2013-09-10 22:33:00
5:53 PM,75.2,59.0,57,29.96,10.0,WNW,10.4,-,N/A,,Clear,290,2013-09-10 22:53:00
6:13 PM,73.4,60.8,65,29.97,10.0,West,9.2,-,N/A,,Clear,270,2013-09-10 23:13:00
6:33 PM,71.6,60.8,69,29.97,10.0,West,6.9,-,N/A,,Clear,270,2013-09-10 23:33:00
6:53 PM,73.4,60.8,65,29.97,10.0,West,6.9,-,N/A,,Clear,270,2013-09-10 23:53:00
7:13 PM,71.6,60.8,69,29.98,10.0,West,5.8,-,N/A,,Clear,280,2013-09-11 00:13:00
7:33 PM,69.8,60.8,73,29.98,10.0,NW,5.8,-,N/A,,Clear,310,2013-09-11 00:33:00
7:53 PM,66.2,60.8,83,29.98,10.0,NNW,4.6,-,N/A,,Clear,330,2013-09-11 00:53:00
8:14 PM,66.2,60.8,83,29.99,10.0,NW,3.5,-,N/A,,Clear,320,2013-09-11 01:14:00
8:33 PM,64.4,60.8,88,30.00,10.0,NW,4.6,-,N/A,,Clear,320,2013-09-11 01:33:00
8:53 PM,64.4,60.8,88,30.00,10.0,NNW,4.6,-,N/A,,Clear,330,2013-09-11 01:53:00
9:13 PM,64.4,60.8,88,30.00,10.0,NW,3.5,-,N/A,,Clear,320,2013-09-11 02:13:00
9:33 PM,64.4,60.8,88,30.00,10.0,NW,4.6,-,N/A,,Clear,320,2013-09-11 02:33:00
9:53 PM,62.6,60.8,94,30.00,10.0,Calm,Calm,-,N/A,,Clear,0,2013-09-11 02:53:00
10:13 PM,62.6,60.8,94,30.00,10.0,Calm,Calm,-,N/A,,Clear,0,2013-09-11 03:13:00
10:33 PM,62.6,60.8,94,30.00,10.0,Calm,Calm,-,N/A,,Clear,0,2013-09-11 03:33:00
10:53 PM,62.6,60.8,94,30.00,10.0,Calm,Calm,-,N/A,,Clear,0,2013-09-11 03:53:00
11:13 PM,62.6,60.8,94,30.00,10.0,Calm,Calm,-,N/A,,Clear,0,2013-09-11 04:13:00
11:33 PM,60.8,59.0,94,30.00,10.0,Calm,Calm,-,N/A,,Clear,0,2013-09-11 04:33:00
11:53 PM,60.8,59.0,94,30.01,10.0,SW,3.5,-,N/A,,Clear,230,2013-09-11 04:53:00